Showing default

COSMOS 2518, 42719

Orbit data source: Space-Track

COSMOS 2518, 42719 is a payload satellite owned by VVKO VKS (CIS) that was launched on Thu, 25 May 2017 UTC via a SOYUZ-2-1B launch vehicle from the Plesetsk Missile And Space Complex (PKMTR). Payload-class satellites include a variety of spacecraft equipped with specific instruments for various scientific and technological missions. These include communications satellites like Starlink; space stations such as the ISS; scientific satellites like the Hubble; Earth observation satellites from companies like Planet Labs, Umbra, and HawkEye 360; GPS; miniature CubeSats for education and research; and military/defense satellites.

Loading next visibility...
Identifier
42719, 2017-027A
Orbit
Molniya
Country
Flag of CISCIS
Related business
Manufacturer
RKKE/KOMET
Mission
Operational Defense Early Warn
Bus & Motor
14F142, Unknown motor
Mass
2,550 kg wet, ~2,000 kg dry
Launch date (UTC)
2017-05-25 (9 years ago)
Launch vehicle
SOYUZ-2-1B
Launch site
Plesetsk Missile And Space Complex (PKMTR)
Object type
Payload
Rocket body
Debris
Shape & HBR
Box + 2 Pan, 5.0 m
Radar Cross Section
14.304 m², Large (>1 m²)

Expand to show TLE details & history
Last TLE update: 5 days ago

TLE from 5 days ago
0 COSMOS 2518
1 42719U 17027A   25337.03203135  .00001177  00000-0 -38958-1 0  9998
2 42719  63.0776 272.6914 7078996 273.3144  15.2388  2.00845202 62463
Epoch: 2025-12-03T00:46Z
TLE epoch observation values (Epoch: 2025-12-03T00:46:07.508Z)
Latitude
0.00042°
Longitude
-171.0344°
Altitude
6,342.611 km
Speed
6.903 km/s
True Right ascension
18h 10m 25s
True Declination
0° 00' 01"
Sunlit
Object was in daylight at epoch
Visualization orbit readout
Latitude
Unknown
Longitude
Unknown
Altitude
Unknown
Speed
Unknown
Apparent Right ascension
Unknown
Apparent Declination
Unknown
Sunlit
N/A
Visualization observer readout
Local Sidereal Time
14:47:14
Azimuth
Unknown
Elevation
Unknown
Doppler factor
Unknown
Orbital elements
Apogee altitude
38,940.339 km
Perigee altitude
1,372.638 km
Semi-major axis
26,534.625 km
Eccentricity
0.7079
Inclination
63.0776°
RAAN
272.6914°
Arg. of periapsis
273.3144°
True anomaly
86.90899°
Mean anomaly
15.2388°
Eccentric anomaly
42.79315°
Mean motion
0.50214 °/min
Orbital period
716.93 mins
BSTAR
-0.038958
Loading maneuver chart data...
Computing Atmospheric mass density...
Loading historical data...
Loading historical data...
Loading historical data...
Loading historical data...
Loading historical data...
Loading historical data...
Loading historical data...
Other satellites on launch #27 in the year 2017 (2017-05-25 UTC)

Documentation

Showing up to 5 results
|